Location: Castelbiague
(43.0361°N, 0.9246°E)
Time: 10:51:51
(UTC+00:00)

Cosmos 1674 Rocket - Pass Details

Date: 17 June 2021
Orbit: 602 x 630 km, 82.5° (Epoch: 27 July)

Event Time Altitude Azimuth Distance (km) Brightness Sun altitude
Rises 20:02:56 0° 183° (S) 2,891 6.7 -4.5°
Reaches altitude 10° 20:05:10 10° 182° (S) 1,986 5.8 -4.8°
Maximum altitude 20:09:33 79° 97° (E) 636 3.6 -5.4°
Drops below altitude 10° 20:13:57 10° 11° (N) 1,984 6.6 -6.1°
Sets 20:16:10 0° 10° (N) 2,890 7.5 -6.4°
